Powrót do katalogu

STARLINK-34379

AktywnyŁącznośćVLEO
NORAD 64302·PAYLOAD·🇺🇸 United States

Wystrzelony Jun 8, 2025 z Vandenberg Space Force Base

Loading…

Następne Przeloty (najbliższe 24 godziny)

TLE

ŚwieżeSource: CelesTrak SupGP

Epoka: Sep 15, 2026, 02:41 UTC

1 64302C 25123M   26258.11229167 -.00028190  00000+0 -63633-3 0  2583
2 64302  70.0020  12.9416 0003330 266.9899 181.0195 15.43068902    11

Śledź STARLINK-34379 w czasie rzeczywistym z AllMySat

Download on the App Store